GW2897 Weather Reports


Display with metric or nautical units.
time (UTC)temp
F
wind
direction
speed
MPH
gust
MPH
rain 1hr
in
rain 24hr
in
rain mn
in
humidity
%
barometer
mb
20260903010901 83 0 0.0 0.0 0.00 0.00 0.00 80 1016.6
20260903010001 84 0 0.0 0.0 0.00 0.00 0.00 79 1016.5
20260903005401 84 0 0.0 0.0 0.00 0.00 0.00 78 1016.5
20260903004501 84 0 0.0 0.0 0.00 0.00 0.00 78 1016.4
20260903003601 85 0 0.0 0.0 0.00 0.00 0.00 77 1016.3
20260903002701 86 0 0.0 0.0 0.00 0.00 0.00 76 1016.2
20260903001801 86 0 0.0 0.0 0.00 0.00 0.00 74 1016.1
20260903000901 87 0 0.0 0.0 0.00 0.00 0.00 73 1016.1
20260903000001 88 0 0.0 0.0 0.00 0.00 0.00 71 1016.1
20260902235401 90 0 0.0 0.0 0.00 0.00 0.00 69 1016.1
20260902234501 91 0 0.0 0.0 0.00 0.00 0.00 69 1015.9
20260902233601 93 0 0.0 0.0 0.00 0.00 0.00 66 1016.0
20260902232722 95 0 0.0 0.0 0.00 0.00 0.00 64 1016.0
20260902231802 96 0 0.0 0.0 0.00 0.00 0.00 62 1016.0
20260902230901 97 130 0.0 1.0 0.00 0.00 0.00 57 1015.9
20260902230001 98 0 0.0 0.0 0.00 0.00 0.00 56 1015.9
20260902225401 99 0 0.0 0.0 0.00 0.00 0.00 56 1015.8
20260902224501 98 266 0.0 2.0 0.00 0.00 0.00 56 1015.9
20260902223623 98 134 0.0 3.0 0.00 0.00 0.00 53 1015.9
20260902222722 98 214 1.0 3.0 0.00 0.00 0.00 55 1016.0
20260902221801 98 243 1.0 4.0 0.00 0.00 0.00 54 1016.0
20260902220902 98 139 0.0 4.0 0.00 0.00 0.00 53 1016.2
20260902220023 98 174 0.0 3.0 0.00 0.00 0.00 53 1016.1
20260902215401 98 159 1.0 3.0 0.00 0.00 0.00 51 1016.2
20260902214502 99 231 1.0 4.0 0.00 0.00 0.00 53 1016.1
20260902213601 99 290 1.0 4.0 0.00 0.00 0.00 51 1016.2
20260902212701 99 140 1.0 4.0 0.00 0.00 0.00 51 1016.1
20260902211801 98 113 2.0 5.0 0.00 0.00 0.00 53 1016.1
20260902210923 98 239 2.0 5.0 0.00 0.00 0.00 54 1016.1
20260902210002 98 257 1.0 4.0 0.00 0.00 0.00 52 1016.2
20260902205401 97 279 2.0 3.0 0.00 0.00 0.00 53 1016.2
20260902204502 97 289 1.0 3.0 0.00 0.00 0.00 53 1016.3
20260902203602 97 213 0.0 1.0 0.00 0.00 0.00 53 1016.4
20260902202723 97 127 1.0 4.0 0.00 0.00 0.00 52 1016.4
20260902201802 97 119 2.0 8.0 0.00 0.00 0.00 53 1016.5
20260902200901 99 142 2.0 8.0 0.00 0.00 0.00 52 1016.6
20260902200002 100 135 2.0 5.0 0.00 0.00 0.00 51 1016.6
20260902195402 99 136 2.0 5.0 0.00 0.00 0.00 51 1016.8
20260902194502 98 104 2.0 6.0 0.00 0.00 0.00 54 1016.8
20260902193602 98 129 3.0 8.0 0.00 0.00 0.00 54 1017.0
20260902192702 97 150 3.0 7.0 0.00 0.00 0.00 54 1017.0
20260902191802 96 243 2.0 6.0 0.00 0.00 0.00 55 1017.1
20260902190902 96 272 3.0 10.0 0.00 0.00 0.00 56 1017.2
20260902190002 95 269 2.0 5.0 0.00 0.00 0.00 58 1017.3
20260902185402 94 280 1.0 5.0 0.00 0.00 0.00 61 1017.3
20260902184502 94 271 1.0 3.0 0.00 0.00 0.00 59 1017.5
20260902183623 95 284 2.0 4.0 0.00 0.00 0.00 57 1017.5
20260902182702 98 115 1.0 3.0 0.00 0.00 0.00 53 1017.6
20260902181823 98 279 2.0 6.0 0.00 0.00 0.00 53 1017.6
20260902180902 97 295 1.0 4.0 0.00 0.00 0.00 55 1017.7
20260902180005 96 106 0.0 4.0 0.00 0.00 0.00 56 1017.9
20260902175402 95 96 1.0 4.0 0.00 0.00 0.00 57 1017.9
20260902174502 95 113 2.0 6.0 0.00 0.00 0.00 57 1018.0
20260902173623 96 140 2.0 6.0 0.00 0.00 0.00 54 1018.0
20260902172723 95 130 2.0 6.0 0.00 0.00 0.00 58 1018.2
20260902171802 94 111 1.0 4.0 0.00 0.00 0.00 62 1018.3
20260902170902 94 140 1.0 4.0 0.00 0.00 0.00 61 1018.3
20260902170002 93 252 1.0 3.0 0.00 0.00 0.00 59 1018.4
20260902165402 92 232 0.0 2.0 0.00 0.00 0.00 61 1018.4
20260902164502 92 300 1.0 3.0 0.00 0.00 0.00 64 1018.5
20260902163602 92 298 2.0 3.0 0.00 0.00 0.00 61 1018.6
20260902162702 92 292 3.0 6.0 0.00 0.00 0.00 61 1018.6
20260902161802 92 321 2.0 6.0 0.00 0.00 0.00 62 1018.6
20260902160923 93 287 2.0 6.0 0.00 0.00 0.00 61 1018.7
20260902160002 93 313 2.0 7.0 0.00 0.00 0.00 62 1018.7
20260902155403 93 3 0.0 3.0 0.00 0.00 0.00 62 1018.8
20260902154502 93 322 2.0 6.0 0.00 0.00 0.00 61 1019.0
20260902153602 92 294 3.0 6.0 0.00 0.00 0.00 62 1019.0
20260902152702 92 321 2.0 6.0 0.00 0.00 0.00 64 1019.0
20260902151803 92 331 1.0 5.0 0.00 0.00 0.00 63 1019.0
20260902150924 91 284 2.0 4.0 0.00 0.00 0.00 66 1019.1
20260902150003 90 285 2.0 5.0 0.00 0.00 0.00 67 1019.1
20260902145402 90 282 2.0 5.0 0.00 0.00 0.00 69 1019.1
20260902144502 90 288 2.0 7.0 0.00 0.00 0.00 68 1019.1
20260902143603 89 282 2.0 4.0 0.00 0.00 0.00 69 1019.0
20260902142705 88 272 2.0 6.0 0.00 0.00 0.00 72 1018.9
20260902141803 87 260 1.0 3.0 0.00 0.00 0.00 75 1018.8
20260902140924 86 295 2.0 5.0 0.00 0.00 0.00 75 1018.9
20260902140003 86 315 3.0 5.0 0.00 0.00 0.00 77 1018.9
20260902135403 85 298 1.0 5.0 0.00 0.00 0.00 78 1018.9
20260902134502 84 270 1.0 3.0 0.00 0.00 0.00 80 1018.9
20260902133602 83 263 1.0 5.0 0.00 0.00 0.00 80 1018.8
20260902132702 82 258 0.0 2.0 0.00 0.00 0.00 82 1018.9
20260902131803 81 284 1.0 4.0 0.00 0.00 0.00 86 1018.9
20260902130924 79 293 0.0 2.0 0.00 0.00 0.00 90 1018.9
20260902130003 77 68 0.0 1.0 0.00 0.00 0.00 96 1019.0
20260902125424 76 0 0.0 0.0 0.00 0.00 0.00 98 1019.0
20260902124503 76 0 0.0 0.0 0.00 0.00 0.00 98 1019.1
20260902123603 75 0 0.0 0.0 0.00 0.00 0.00 98 1019.1
20260902122703 74 0 0.0 0.0 0.00 0.00 0.00 98 1019.1
20260902121803 73 0 0.0 0.0 0.00 0.00 0.00 98 1018.9
20260902120903 72 0 0.0 0.0 0.00 0.00 0.00 97 1019.0
20260902120003 72 0 0.0 0.0 0.00 0.00 0.00 97 1019.0
20260902115403 72 0 0.0 0.0 0.00 0.00 0.00 97 1019.1
20260902114503 71 0 0.0 0.0 0.00 0.00 0.00 97 1019.0
20260902113603 71 0 0.0 0.0 0.00 0.00 0.00 97 1019.0
20260902112724 71 0 0.0 0.0 0.00 0.00 0.00 97 1018.8
20260902111803 71 0 0.0 0.0 0.00 0.00 0.00 97 1018.7
20260902110924 71 0 0.0 0.0 0.00 0.00 0.00 96 1018.7
20260902110005 71 0 0.0 0.0 0.00 0.00 0.00 97 1018.6
20260902105403 71 0 0.0 0.0 0.00 0.00 0.00 96 1018.6
20260902104503 71 0 0.0 0.0 0.00 0.00 0.00 96 1018.6
20260902103603 71 0 0.0 0.0 0.00 0.00 0.00 96 1018.6
20260902102724 71 0 0.0 0.0 0.00 0.00 0.00 96 1018.3
20260902101803 71 0 0.0 0.0 0.00 0.00 0.00 96 1018.4
20260902100903 71 0 0.0 0.0 0.00 0.00 0.00 96 1018.3
20260902100000 72 0 0.0 0.0 0.00 0.00 0.00 96 1018.2
20260902095359 72 0 0.0 0.0 0.00 0.00 0.00 96 1018.2
20260902094500 72 0 0.0 0.0 0.00 0.00 0.00 96 1018.3
20260902093600 72 0 0.0 0.0 0.00 0.00 0.00 96 1018.2
20260902092659 72 0 0.0 0.0 0.00 0.00 0.00 96 1018.1
20260902091800 72 0 0.0 0.0 0.00 0.00 0.00 96 1018.1
20260902090900 72 0 0.0 0.0 0.00 0.00 0.00 95 1017.9
20260902085959 72 0 0.0 0.0 0.00 0.00 0.00 95 1017.9
20260902085400 73 0 0.0 0.0 0.00 0.00 0.00 95 1017.9
20260902084500 73 0 0.0 0.0 0.00 0.00 0.00 95 1017.9
20260902083600 73 0 0.0 0.0 0.00 0.00 0.00 95 1017.8
20260902082700 73 0 0.0 0.0 0.00 0.00 0.00 95 1017.8
20260902081800 73 0 0.0 0.0 0.00 0.00 0.00 95 1017.7
20260902080900 73 0 0.0 0.0 0.00 0.00 0.00 94 1017.6
20260902080000 74 0 0.0 0.0 0.00 0.00 0.00 94 1017.6
20260902075400 74 0 0.0 0.0 0.00 0.00 0.00 94 1017.4
20260902074500 74 0 0.0 0.0 0.00 0.00 0.00 94 1017.5
20260902073600 74 0 0.0 0.0 0.00 0.00 0.00 94 1017.4
20260902072701 74 0 0.0 0.0 0.00 0.00 0.00 94 1017.5
20260902071800 74 0 0.0 0.0 0.00 0.00 0.00 94 1017.4
20260902070900 74 0 0.0 0.0 0.00 0.00 0.00 94 1017.5
20260902070000 74 0 0.0 0.0 0.00 0.00 0.00 94 1017.5
20260902065400 74 0 0.0 0.0 0.00 0.00 0.00 94 1017.5
20260902064500 74 0 0.0 0.0 0.00 0.00 0.00 94 1017.7
20260902063600 74 0 0.0 0.0 0.00 0.00 0.00 94 1017.6
20260902062701 74 0 0.0 0.0 0.00 0.00 0.00 94 1017.7
20260902061800 75 0 0.0 0.0 0.00 0.00 0.00 94 1017.8
20260902060900 75 0 0.0 0.0 0.00 0.00 0.00 94 1017.7
20260902060000 75 0 0.0 0.0 0.00 0.00 0.00 94 1017.8
20260902055400 75 0 0.0 0.0 0.00 0.00 0.00 93 1017.8
20260902054501 75 0 0.0 0.0 0.00 0.00 0.00 93 1017.8
20260902053600 75 0 0.0 0.0 0.00 0.00 0.00 92 1017.8
20260902052700 75 0 0.0 0.0 0.00 0.00 0.00 92 1017.8
20260902051800 75 0 0.0 0.0 0.00 0.00 0.00 92 1017.8
20260902050900 75 0 0.0 0.0 0.00 0.00 0.00 91 1017.7
20260902050001 75 0 0.0 0.0 0.00 0.00 0.00 91 1017.6
20260902045400 75 0 0.0 0.0 0.00 0.00 0.00 90 1017.6
20260902044501 76 0 0.0 0.0 0.00 0.00 0.00 89 1017.6
20260902043600 76 0 0.0 0.0 0.00 0.00 0.00 90 1017.5
20260902042700 75 0 0.0 0.0 0.00 0.00 0.00 89 1017.5
20260902041800 76 0 0.0 0.0 0.00 0.00 0.00 88 1017.5
20260902040900 75 0 0.0 0.0 0.00 0.00 0.00 89 1017.5
20260902040001 76 0 0.0 0.0 0.00 0.00 0.00 89 1017.5
20260902035401 76 0 0.0 0.0 0.00 0.00 0.00 89 1017.5
20260902034501 76 0 0.0 0.0 0.00 0.00 0.00 89 1017.5
20260902033601 76 0 0.0 0.0 0.00 0.00 0.00 89 1017.4
20260902032701 77 0 0.0 0.0 0.00 0.00 0.00 89 1017.5
20260902031801 77 0 0.0 0.0 0.00 0.00 0.00 88 1017.5
20260902030922 77 0 0.0 0.0 0.00 0.00 0.00 87 1017.5
20260902030022 77 0 0.0 0.0 0.00 0.00 0.00 86 1017.5
20260902025400 77 0 0.0 0.0 0.00 0.00 0.00 86 1017.6
20260902024501 77 0 0.0 0.0 0.00 0.00 0.00 86 1017.6
20260902023601 77 0 0.0 0.0 0.00 0.00 0.00 86 1017.5
20260902022701 78 0 0.0 0.0 0.00 0.00 0.00 86 1017.4
20260902021801 78 0 0.0 0.0 0.00 0.00 0.00 86 1017.3
20260902020901 78 0 0.0 0.0 0.00 0.00 0.00 86 1017.3
20260902020001 78 0 0.0 0.0 0.00 0.00 0.00 86 1017.3
20260902015401 78 0 0.0 0.0 0.00 0.00 0.00 85 1017.3
20260902014501 78 0 0.0 0.0 0.00 0.00 0.00 84 1017.2
20260902013601 79 0 0.0 0.0 0.00 0.00 0.00 84 1017.2
20260902012701 79 0 0.0 0.0 0.00 0.00 0.00 84 1017.1
20260902011801 80 0 0.0 0.0 0.00 0.00 0.00 84 1017.1